Regional Weather Roundup
Issued by NWS

Home | Current Version | Previous Version | Text Only | Print | Product List | Glossary On
Versions: 1 2 3 4 5 6 7 8 9 10 11 12 13 14 15 16 17 18 19 20 21 22 23 24 25 26 27 28 29 30 31 32 33 34 35 36 37 38 39 40 41 42 43 44 45 46 47 48 49 50
000
ASUS45 KSLC 231710
RWRUT

UTAH REGIONAL WEATHER ROUNDUP
NATIONAL WEATHER SERVICE SALT LAKE CITY UT
1100 AM MDT SAT AUG 23 2014

UTZ001>011-023>025-231800-

NORTHERN UTAH

CITY           SKY/WX    TMP DP  RH WIND       PRES   REMARKS
HILL AFB       PTSUNNY   61  48  63 S9        30.08S
LOGAN          MOSUNNY   58  52  80 CALM      30.07R
OGDEN          CLOUDY    62  50  64 S9        30.07R
PROVO AIRPORT  MOSUNNY   61  48  63 E5        30.11S
SALT LAKE CITY MOSUNNY   64  49  57 S8        30.06S
VERNAL         CLOUDY    53  47  79 SE5       30.08R
WENDOVER       SUNNY     64  45  48 SE7       30.09S
HEBER CITY     SUNNY     55  43  62 CALM      30.12S
WEST JORDAN    MOSUNNY   64  52  63 SE8       30.09R

$$

UTZ012>022-026-027-231800-

SOUTHERN UTAH

CITY           SKY/WX    TMP DP  RH WIND       PRES   REMARKS
BRYCE CANYON   MOSUNNY   63  46  54 SW13      30.22R
CEDAR CITY     CLOUDY    69  48  47 SW8       30.11R
MILFORD        MOSUNNY   67  55  65 CALM      30.09R
MOAB/CYNLANDS  LGT RAIN N/A N/A N/A VRB6      30.09R
PRICE          PTSUNNY   54  45  71 E6        30.14S
ST GEORGE      SUNNY     81  52  36 NW3       29.99S
KANAB            N/A     73  50  43 S12       30.13F

$$

REGIONAL REPORTS     COLORADO/ARIZONA

CITY           SKY/WX    TMP DP  RH WIND       PRES   REMARKS
CRAIG, CO      LGT RAIN  53  48  83 W6        30.12S
GRAND JUNCTION LGT RAIN  57  55  93 CALM      30.10S
RIFLE          RAIN      54  51  90 NW8       30.14R FOG
MONTROSE       CLOUDY    63  55  75 N5        30.12S
CORTEZ         PTSUNNY   67  52  58 SW6       30.16S
PAGE, AZ       SUNNY     78  49  35 VRB3      30.05S
GRAND CANYON   SUNNY     63  50  62 SW17      30.24S
KINGMAN        SUNNY     79  48  33 VRB3      30.04R
FLAGSTAFF      CLOUDY    61  49  64 S10       30.26S

$$

REGIONAL REPORTS    NEVADA/IDAHO/WYOMING

CITY           SKY/WX    TMP DP  RH WIND       PRES   REMARKS
LAS VEGAS, NV  SUNNY     86  43  22 S9        29.89R
ELY            SUNNY     64  41  42 NE3       30.16R
ELKO           MOSUNNY   65  36  34 VRB6      30.13S
POCATELLO, ID  LGT RAIN  54  50  86 SW13      30.08S
BURLEY         SUNNY     59  46  62 W14G23    30.07S
EVANSTON, WY   MOSUNNY   53  42  66 SW17G23   30.13S
ROCK SPRINGS   CLOUDY    48  41  76 SW15      30.10R

$$


USA.gov is the U.S. government's official web portal to all federal, state and local government web resources and services.